| time (UTC) | temp C | wind direction | speed KPH | gust KPH | rain 1hr cm | rain 24hr cm | rain mn cm | humidity % | barometer mb |
| 20260504140851 | 8 | 215 | 6.4 | 16.1 | 0.05 | 0.05 | 0.05 | 82 | 1006.8 |
| 20260504140345 | 8 | 263 | 4.8 | 16.1 | 0.03 | 0.03 | 0.03 | 81 | 1006.7 |
| 20260504130739 | 10 | 257 | 11.3 | 29.0 | 0.00 | 0.00 | 0.00 | 69 | 1005.7 |
| 20260504130234 | 10 | 307 | 9.7 | 24.1 | 0.00 | 0.00 | 0.00 | 69 | 1005.7 |
| 20260504120122 | 10 | 251 | 12.9 | 25.7 | 0.00 | 0.00 | 0.00 | 72 | 1005.4 |
| 20260504110515 | 8 | 216 | 8.0 | 20.9 | 0.00 | 0.00 | 0.00 | 79 | 1006.0 |
| 20260504100403 | 8 | 225 | 3.2 | 9.7 | 0.00 | 0.00 | 0.00 | 81 | 1006.2 |
| 20260504081657 | 7 | 215 | 6.4 | 16.1 | 0.00 | 0.00 | 0.00 | 74 | 1006.8 |
| 20260504081154 | 7 | 278 | 4.8 | 16.1 | 0.00 | 0.00 | 0.00 | 74 | 1006.9 |
| 20260504080651 | 7 | 271 | 4.8 | 14.5 | 0.00 | 0.00 | 0.00 | 73 | 1006.8 |
| 20260504080152 | 7 | 249 | 4.8 | 14.5 | 0.00 | 0.00 | 0.00 | 73 | 1006.9 |
| 20260504070152 | 7 | 212 | 3.2 | 9.7 | 0.00 | 0.00 | 0.00 | 68 | 1007.1 |
| 20260504060127 | 3 | 353 | 0.0 | 3.2 | 0.00 | 0.00 | 0.00 | 81 | 1007.2 |
| 20260504050604 | 2 | 23 | 0.0 | 1.6 | 0.00 | 0.00 | 0.00 | 82 | 1007.4 |
| 20260504045555 | 2 | 23 | 1.6 | 9.7 | 0.00 | 0.00 | 0.00 | 79 | 1007.5 |
| 20260504045056 | 2 | 297 | 1.6 | 9.7 | 0.00 | 0.00 | 0.00 | 80 | 1007.6 |
| 20260504044553 | 2 | 170 | 0.0 | 0.0 | 0.00 | 0.00 | 0.00 | 82 | 1007.6 |
| 20260504044051 | 2 | 232 | 0.0 | 3.2 | 0.00 | 0.00 | 0.00 | 81 | 1007.5 |
| 20260504043551 | 2 | 167 | 1.6 | 3.2 | 0.00 | 0.00 | 0.00 | 80 | 1007.7 |
| 20260504043050 | 2 | 160 | 0.0 | 3.2 | 0.00 | 0.00 | 0.00 | 78 | 1007.7 |
| 20260504042547 | 2 | 158 | 0.0 | 3.2 | 0.00 | 0.00 | 0.00 | 78 | 1007.8 |
| 20260504041546 | 1 | 143 | 1.6 | 3.2 | 0.00 | 0.00 | 0.00 | 80 | 1007.7 |
| 20260504041045 | 2 | 149 | 1.6 | 4.8 | 0.00 | 0.00 | 0.00 | 78 | 1007.7 |
| 20260504040546 | 2 | 175 | 3.2 | 4.8 | 0.00 | 0.00 | 0.00 | 75 | 1007.7 |
| 20260504035546 | 2 | 167 | 1.6 | 4.8 | 0.00 | 0.00 | 0.00 | 74 | 1007.7 |
| 20260504035040 | 2 | 169 | 1.6 | 4.8 | 0.00 | 0.00 | 0.00 | 73 | 1007.7 |
| 20260504034534 | 2 | 166 | 1.6 | 3.2 | 0.00 | 0.00 | 0.00 | 74 | 1007.8 |
| 20260504034028 | 2 | 167 | 1.6 | 4.8 | 0.00 | 0.00 | 0.00 | 76 | 1007.8 |
| 20260504033521 | 3 | 154 | 1.6 | 4.8 | 0.00 | 0.00 | 0.00 | 72 | 1007.7 |
| 20260504032510 | 3 | 146 | 1.6 | 3.2 | 0.00 | 0.00 | 0.00 | 70 | 1007.7 |
| 20260504031458 | 3 | 141 | 0.0 | 6.4 | 0.00 | 0.03 | 0.00 | 68 | 1007.8 |
| 20260504030952 | 5 | 230 | 1.6 | 6.4 | 0.00 | 0.03 | 0.00 | 65 | 1007.7 |
| 20260504030446 | 5 | 168 | 3.2 | 8.0 | 0.00 | 0.03 | 0.00 | 61 | 1007.7 |
| 20260504025940 | 5 | 186 | 3.2 | 8.0 | 0.00 | 0.03 | 0.00 | 59 | 1007.8 |
| 20260504025434 | 5 | 215 | 4.8 | 8.0 | 0.00 | 0.03 | 0.00 | 62 | 1007.8 |
| 20260504024928 | 6 | 205 | 6.4 | 9.7 | 0.00 | 0.03 | 0.00 | 58 | 1007.9 |
| 20260504024421 | 6 | 197 | 6.4 | 9.7 | 0.00 | 0.03 | 0.00 | 58 | 1007.9 |
| 20260504023915 | 6 | 179 | 4.8 | 9.7 | 0.00 | 0.03 | 0.00 | 59 | 1008.0 |
| 20260504023410 | 6 | 239 | 4.8 | 11.3 | 0.00 | 0.03 | 0.00 | 59 | 1008.0 |
| 20260504022358 | 5 | 186 | 4.8 | 8.0 | 0.00 | 0.03 | 0.00 | 60 | 1008.1 |
| 20260504021851 | 5 | 188 | 4.8 | 11.3 | 0.00 | 0.03 | 0.00 | 62 | 1008.1 |
| 20260504021349 | 5 | 197 | 4.8 | 11.3 | 0.00 | 0.03 | 0.00 | 64 | 1008.1 |
| 20260504020848 | 4 | 191 | 4.8 | 6.4 | 0.00 | 0.03 | 0.00 | 67 | 1008.0 |
| 20260504015850 | 5 | 170 | 4.8 | 9.7 | 0.00 | 0.03 | 0.00 | 66 | 1007.9 |
| 20260504015346 | 5 | 172 | 4.8 | 9.7 | 0.00 | 0.03 | 0.00 | 65 | 1007.9 |
| 20260504014846 | 5 | 193 | 6.4 | 8.0 | 0.00 | 0.03 | 0.00 | 64 | 1007.9 |
| 20260504014346 | 5 | 188 | 6.4 | 9.7 | 0.00 | 0.03 | 0.00 | 63 | 1008.0 |
| 20260504013344 | 5 | 197 | 6.4 | 11.3 | 0.00 | 0.03 | 0.00 | 61 | 1008.0 |
| 20260504012342 | 5 | 193 | 6.4 | 11.3 | 0.00 | 0.03 | 0.00 | 62 | 1007.9 |
| 20260504011842 | 5 | 184 | 6.4 | 8.0 | 0.00 | 0.03 | 0.00 | 63 | 1007.9 |
| 20260504011342 | 5 | 193 | 6.4 | 9.7 | 0.00 | 0.03 | 0.00 | 64 | 1007.9 |
| 20260504010842 | 5 | 200 | 6.4 | 9.7 | 0.00 | 0.03 | 0.00 | 64 | 1007.9 |
| 20260504010342 | 5 | 190 | 6.4 | 12.9 | 0.00 | 0.03 | 0.00 | 65 | 1007.8 |
| 20260504005842 | 5 | 189 | 8.0 | 12.9 | 0.00 | 0.03 | 0.00 | 66 | 1007.8 |
| 20260504005346 | 5 | 182 | 8.0 | 11.3 | 0.00 | 0.05 | 0.00 | 66 | 1007.7 |
| 20260504004845 | 5 | 196 | 6.4 | 9.7 | 0.00 | 0.05 | 0.00 | 64 | 1007.7 |
| 20260504003833 | 6 | 177 | 6.4 | 8.0 | 0.00 | 0.05 | 0.00 | 61 | 1007.7 |
| 20260504003327 | 6 | 179 | 4.8 | 8.0 | 0.00 | 0.05 | 0.00 | 60 | 1007.7 |
| 20260504002821 | 7 | 184 | 4.8 | 8.0 | 0.00 | 0.05 | 0.00 | 58 | 1007.7 |
| 20260504001810 | 7 | 191 | 3.2 | 8.0 | 0.00 | 0.05 | 0.00 | 55 | 1007.6 |
| 20260504000758 | 7 | 191 | 3.2 | 4.8 | 0.00 | 0.05 | 0.00 | 55 | 1007.6 |
| 20260504000252 | 8 | 224 | 1.6 | 4.8 | 0.00 | 0.05 | 0.00 | 54 | 1007.6 |
| 20260503235745 | 8 | 205 | 3.2 | 8.0 | 0.00 | 0.05 | 0.00 | 53 | 1007.5 |
| 20260503235239 | 8 | 211 | 3.2 | 8.0 | 0.00 | 0.05 | 0.00 | 53 | 1007.6 |
| 20260503234227 | 8 | 240 | 3.2 | 6.4 | 0.00 | 0.05 | 0.00 | 53 | 1007.5 |
| 20260503233726 | 8 | 235 | 1.6 | 8.0 | 0.00 | 0.05 | 0.00 | 53 | 1007.4 |
| 20260503233226 | 8 | 217 | 1.6 | 8.0 | 0.00 | 0.05 | 0.00 | 53 | 1007.4 |
| 20260503232724 | 8 | 262 | 1.6 | 6.4 | 0.00 | 0.05 | 0.00 | 53 | 1007.4 |
| 20260503232222 | 8 | 212 | 1.6 | 6.4 | 0.00 | 0.05 | 0.00 | 52 | 1007.4 |
| 20260503231720 | 8 | 264 | 1.6 | 6.4 | 0.00 | 0.05 | 0.00 | 52 | 1007.4 |
| 20260503231220 | 8 | 323 | 3.2 | 6.4 | 0.00 | 0.05 | 0.00 | 51 | 1007.4 |
| 20260503230720 | 8 | 290 | 3.2 | 8.0 | 0.00 | 0.05 | 0.00 | 50 | 1007.4 |
| 20260503230220 | 8 | 245 | 3.2 | 8.0 | 0.00 | 0.05 | 0.00 | 51 | 1007.4 |
| 20260503225720 | 9 | 270 | 1.6 | 6.4 | 0.00 | 0.05 | 0.00 | 50 | 1007.4 |
| 20260503225221 | 9 | 264 | 1.6 | 6.4 | 0.00 | 0.05 | 0.00 | 50 | 1007.4 |
| 20260503224722 | 9 | 248 | 1.6 | 6.4 | 0.00 | 0.08 | 0.00 | 49 | 1007.5 |
| 20260503223720 | 9 | 339 | 1.6 | 11.3 | 0.00 | 0.08 | 0.00 | 48 | 1007.5 |
| 20260503223220 | 9 | 327 | 1.6 | 6.4 | 0.00 | 0.08 | 0.00 | 49 | 1007.4 |
| 20260503222719 | 9 | 262 | 3.2 | 8.0 | 0.00 | 0.08 | 0.00 | 49 | 1007.5 |
| 20260503221717 | 9 | 283 | 3.2 | 9.7 | 0.00 | 0.08 | 0.00 | 49 | 1007.5 |
| 20260503221212 | 9 | 304 | 4.8 | 11.3 | 0.00 | 0.08 | 0.00 | 48 | 1007.4 |
| 20260503220210 | 9 | 326 | 3.2 | 12.9 | 0.00 | 0.08 | 0.00 | 48 | 1007.5 |
| 20260503215710 | 10 | 256 | 4.8 | 11.3 | 0.00 | 0.08 | 0.00 | 49 | 1007.4 |
| 20260503215210 | 10 | 274 | 6.4 | 14.5 | 0.00 | 0.08 | 0.00 | 49 | 1007.4 |
| 20260503214710 | 9 | 259 | 4.8 | 14.5 | 0.00 | 0.08 | 0.00 | 50 | 1007.5 |
| 20260503214208 | 9 | 299 | 3.2 | 12.9 | 0.00 | 0.08 | 0.00 | 49 | 1007.5 |
| 20260503213705 | 9 | 345 | 4.8 | 12.9 | 0.00 | 0.08 | 0.00 | 49 | 1007.5 |
| 20260503213204 | 9 | 351 | 6.4 | 16.1 | 0.00 | 0.08 | 0.00 | 48 | 1007.6 |
| 20260503212704 | 9 | 298 | 6.4 | 16.1 | 0.00 | 0.08 | 0.00 | 48 | 1007.5 |
| 20260503212202 | 9 | 294 | 4.8 | 16.1 | 0.00 | 0.08 | 0.00 | 48 | 1007.6 |
| 20260503211702 | 10 | 336 | 6.4 | 12.9 | 0.00 | 0.08 | 0.00 | 48 | 1007.6 |
| 20260503210701 | 9 | 246 | 4.8 | 12.9 | 0.00 | 0.08 | 0.00 | 49 | 1007.5 |
| 20260503210200 | 9 | 277 | 4.8 | 9.7 | 0.00 | 0.08 | 0.00 | 52 | 1007.4 |
| 20260503205703 | 9 | 13 | 4.8 | 11.3 | 0.00 | 0.08 | 0.00 | 49 | 1007.5 |
| 20260503205157 | 9 | 308 | 8.0 | 20.9 | 0.00 | 0.08 | 0.00 | 52 | 1007.5 |
| 20260503204651 | 9 | 216 | 9.7 | 20.9 | 0.00 | 0.08 | 0.00 | 50 | 1007.5 |
| 20260503204145 | 9 | 280 | 8.0 | 19.3 | 0.00 | 0.08 | 0.00 | 51 | 1007.6 |
| 20260503203640 | 9 | 17 | 6.4 | 19.3 | 0.00 | 0.08 | 0.00 | 50 | 1007.5 |
| 20260503203133 | 9 | 290 | 6.4 | 16.1 | 0.00 | 0.08 | 0.00 | 52 | 1007.5 |
| 20260503202627 | 9 | 320 | 8.0 | 16.1 | 0.00 | 0.08 | 0.00 | 51 | 1007.7 |
| 20260503202121 | 8 | 323 | 8.0 | 16.1 | 0.00 | 0.08 | 0.00 | 53 | 1007.7 |
| 20260503201615 | 8 | 335 | 6.4 | 14.5 | 0.00 | 0.08 | 0.00 | 53 | 1007.7 |
| 20260503201109 | 8 | 20 | 8.0 | 16.1 | 0.00 | 0.08 | 0.00 | 53 | 1007.7 |
| 20260503200604 | 8 | 323 | 8.0 | 16.1 | 0.00 | 0.08 | 0.00 | 54 | 1007.8 |
| 20260503200057 | 8 | 309 | 9.7 | 25.7 | 0.00 | 0.08 | 0.00 | 54 | 1007.9 |
| 20260503195551 | 8 | 44 | 8.0 | 25.7 | 0.00 | 0.08 | 0.00 | 54 | 1007.9 |
| 20260503195045 | 8 | 309 | 6.4 | 17.7 | 0.00 | 0.08 | 0.00 | 54 | 1008.0 |
| 20260503194539 | 8 | 326 | 8.0 | 20.9 | 0.00 | 0.08 | 0.00 | 53 | 1008.0 |
| 20260503194033 | 8 | 25 | 6.4 | 20.9 | 0.00 | 0.08 | 0.00 | 52 | 1008.0 |
| 20260503193527 | 8 | 339 | 6.4 | 17.7 | 0.00 | 0.08 | 0.00 | 54 | 1008.0 |
| 20260503193021 | 8 | 320 | 6.4 | 17.7 | 0.00 | 0.08 | 0.00 | 53 | 1008.0 |
| 20260503192516 | 8 | 294 | 6.4 | 17.7 | 0.00 | 0.08 | 0.00 | 54 | 1007.9 |
| 20260503192009 | 8 | 290 | 6.4 | 14.5 | 0.00 | 0.08 | 0.00 | 55 | 1008.0 |
| 20260503191503 | 8 | 339 | 6.4 | 17.7 | 0.00 | 0.08 | 0.00 | 54 | 1008.2 |
| 20260503190957 | 8 | 271 | 6.4 | 17.7 | 0.00 | 0.08 | 0.00 | 55 | 1008.2 |
| 20260503185945 | 8 | 247 | 4.8 | 16.1 | 0.00 | 0.08 | 0.00 | 55 | 1008.4 |
| 20260503185440 | 8 | 330 | 6.4 | 20.9 | 0.00 | 0.08 | 0.00 | 54 | 1008.3 |
| 20260503184933 | 8 | 49 | 6.4 | 20.9 | 0.00 | 0.08 | 0.00 | 54 | 1008.2 |
| 20260503184428 | 8 | 18 | 6.4 | 17.7 | 0.00 | 0.08 | 0.00 | 57 | 1008.3 |
| 20260503183416 | 8 | 293 | 4.8 | 12.9 | 0.00 | 0.08 | 0.00 | 56 | 1008.3 |
| 20260503182909 | 8 | 212 | 4.8 | 12.9 | 0.00 | 0.08 | 0.00 | 55 | 1008.3 |
| 20260503182403 | 8 | 6 | 8.0 | 16.1 | 0.00 | 0.08 | 0.00 | 56 | 1008.3 |
| 20260503181858 | 8 | 338 | 6.4 | 16.1 | 0.00 | 0.08 | 0.00 | 55 | 1008.3 |
| 20260503181351 | 8 | 309 | 3.2 | 11.3 | 0.00 | 0.08 | 0.00 | 57 | 1008.4 |
| 20260503180845 | 8 | 327 | 3.2 | 14.5 | 0.00 | 0.08 | 0.00 | 59 | 1008.5 |
| 20260503180340 | 7 | 328 | 4.8 | 14.5 | 0.00 | 0.08 | 0.00 | 56 | 1008.5 |
| 20260503175833 | 7 | 346 | 6.4 | 14.5 | 0.00 | 0.08 | 0.00 | 56 | 1008.6 |
| 20260503175327 | 7 | 283 | 8.0 | 22.5 | 0.00 | 0.08 | 0.00 | 56 | 1008.6 |
| 20260503174822 | 7 | 300 | 8.0 | 22.5 | 0.00 | 0.08 | 0.00 | 55 | 1008.5 |
| 20260503174315 | 8 | 5 | 8.0 | 19.3 | 0.00 | 0.08 | 0.00 | 56 | 1008.6 |
| 20260503173304 | 8 | 337 | 6.4 | 19.3 | 0.00 | 0.08 | 0.00 | 57 | 1008.5 |
| 20260503170733 | 8 | 326 | 6.4 | 19.3 | 0.00 | 0.08 | 0.00 | 52 | 1008.5 |
| 20260503170227 | 8 | 40 | 8.0 | 22.5 | 0.00 | 0.08 | 0.00 | 53 | 1008.6 |
| 20260503160116 | 7 | 77 | 8.0 | 19.3 | 0.00 | 0.08 | 0.00 | 55 | 1009.1 |
| 20260503150509 | 7 | 265 | 3.2 | 9.7 | 0.00 | 0.08 | 0.00 | 60 | 1009.6 |